Location: *
(10.5081°N, 66.9194°W)
Time: 04:34:36
(UTC+00:00)

Cosmos 1242 Rocket - Pass Details

Date: 30 March 2020
Orbit: 449 x 486 km, 81.2° (Epoch: 24 May)

Event Time Altitude Azimuth Distance (km) Brightness Sun altitude
Rises 23:15:47 0° 353° (N) 2,458 6.3 -10.0°
Reaches altitude 10° 23:17:50 10° 353° (N) 1,591 5.3 -10.5°
Maximum altitude 23:21:18 85° 267° (W) 466 2.5 -11.3°
Drops below altitude 10° 23:24:50 10° 176° (S) 1,613 5.1 -12.2°
Sets 23:26:56 0° 176° (S) 2,496 6.1 -12.7°
